Location: Crescent
(42.8242°N, 73.7329°W)
Time: 15:51:22
(UTC+00:00)

Injun/Solrad 3 - Visible Passes

Search period start: 10 February 2026 00:00
Search period end: 20 February 2026 00:00
Orbit: 873 x 983 km, 66.8° (Epoch: 10 February)

Date Brightness Start Highest point End Pass type
(mag) Time Alt. Az. Time Alt. Az. Time Alt. Az.
10 Feb 10.0 01:23:21 10° N 01:24:51 16° N 01:24:51 16° N visible
11 Feb 9.9 01:34:06 10° NNW 01:35:49 18° N 01:35:49 18° N visible
12 Feb 9.8 00:00:12 10° N 00:02:50 13° NNE 00:03:11 13° NNE visible
12 Feb 9.9 01:44:57 10° NNW 01:46:49 20° NNW 01:46:49 20° NNW visible
13 Feb 9.5 00:10:34 10° N 00:14:13 17° NNE 00:14:13 17° NNE visible
13 Feb 9.8 01:55:53 10° NNW 01:57:52 22° NNW 01:57:52 22° NNW visible
14 Feb 9.3 00:21:09 10° N 00:25:19 22° NNE 00:25:19 22° NNE visible
14 Feb 9.9 02:06:54 10° NNW 02:08:59 23° NNW 02:08:59 23° NNW visible
15 Feb 8.9 00:31:53 10° NNW 00:36:29 30° NNE 00:36:29 30° NNE visible
15 Feb 9.9 02:18:03 10° NW 02:20:08 22° NW 02:20:08 22° NW visible
15 Feb 9.8 22:58:12 10° N 23:00:20 12° NNE 23:02:29 10° NE visible
16 Feb 8.5 00:42:41 10° NNW 00:47:42 41° NNE 00:47:42 41° NNE visible
16 Feb 10.1 02:29:20 10° NW 02:31:22 20° WNW 02:31:22 20° WNW visible
16 Feb 9.6 23:08:25 10° N 23:11:57 15° NE 23:15:21 10° ENE visible
17 Feb 8.1 00:53:36 10° NNW 00:59:01 58° NNE 00:59:01 58° NNE visible
17 Feb 10.3 02:40:55 10° NW 02:42:41 17° WNW 02:42:41 17° WNW visible
17 Feb 9.3 23:18:58 10° N 23:23:28 21° NE 23:26:45 14° ENE visible
18 Feb 7.9 01:04:35 10° NNW 01:10:26 81° NNW 01:10:26 81° NNW visible
18 Feb 10.5 02:53:01 10° WNW 02:54:06 13° WNW 02:54:06 13° WNW visible
18 Feb 8.9 23:29:40 10° NNW 23:34:52 28° NE 23:38:18 18° E visible
19 Feb 8.2 01:15:41 10° NW 01:21:47 63° WSW 01:21:59 63° SW visible
19 Feb 8.5 23:40:27 10° NNW 23:46:11 38° NE 23:49:59 20° ESE visible
